This is the latest recevied weather packets stored in our database for station/object GUNLAK-WX. If no packets are shown the sender has not sent any weather packets the latest 10 day(s).
| Time | Temp. | Humidity | Pressure | Rain* | Wind** | Luminosity | Snow |
|---|---|---|---|---|---|---|---|
| 1777111297 | 10° C | 91% | 983.9 hPa | 0 mm | - | - | - |
| 1777110378 | 10° C | 90% | 983 hPa | 0 mm | - | - | - |
| 1777109489 | 10° C | 90% | 983 hPa | 0 mm | - | - | - |
| 1777108574 | 10.56° C | 90% | 983 hPa | 0 mm | - | - | - |
| 1777107695 | 10.56° C | 90% | 983 hPa | 0 mm | - | - | - |
| 1777106779 | 10.56° C | 92% | 982.6 hPa | 0 mm | - | - | - |
| 1777105887 | 11.11° C | 88% | 982.6 hPa | 0 mm | - | - | - |
| 1777104978 | 11.67° C | 88% | 982.7 hPa | 0 mm | - | - | - |
| 1777104097 | 12.22° C | 88% | 982.7 hPa | 0 mm | - | - | - |
| 1777103178 | 12.78° C | 93% | 981.7 hPa | 0 mm | - | - | - |
| 1777102286 | 12.78° C | 93% | 981.7 hPa | 0 mm | - | - | - |
| 1777101378 | 12.22° C | 93% | 981.6 hPa | 0 mm | - | - | - |
| 1777100499 | 12.78° C | 93% | 981.6 hPa | 0 mm | - | - | - |
| 1777099578 | 12.78° C | 88% | 981.7 hPa | 0 mm | - | - | - |
| 1777098688 | 12.78° C | 94% | 981.7 hPa | 0 mm | - | - | - |
| 1777097777 | 12.78° C | 94% | 981.7 hPa | 0 mm | - | - | - |
| 1777096910 | 12.78° C | 94% | 981.7 hPa | 0 mm | - | - | - |
| 1777095979 | 12.78° C | 90% | 982.5 hPa | 0 mm | - | - | - |
| 1777095091 | 12.78° C | 95% | 982.5 hPa | 0 mm | - | - | - |
| 1777094176 | 13.33° C | 95% | 981.9 hPa | 0 mm | - | - | - |
| 1777093296 | 13.33° C | 95% | 981.9 hPa | 0 mm | - | - | - |
| 1777092377 | 13.33° C | 90% | 982.4 hPa | 0 mm | - | - | - |
| 1777091486 | 13.33° C | 92% | 981.6 hPa | 0 mm | - | - | - |
| 1777090577 | 13.89° C | 92% | 981.6 hPa | 0 mm | - | - | - |
| 1777089703 | 13.89° C | 92% | 981.6 hPa | 0 mm | - | - | - |
* Rain latest hour (hover to see other rain measurements)
** Current wind speed in m/s (hover to see current wind gust speed)